This demonstration page uses our WeatherBlox Daily Observations layout. Learn more.

Left ArrowRight Arrow

44.31136, -96.79839

Hourly Observations for May 7, 2022

Temp ( °F °C ) Dew Point ( °F °C ) Humidity (%) Winds ( mph kmh ) Pressure ( in mb ) Visibility ( mi km ) Precip ( " mm )
12:56 am 00:56 Clear 51 10.6 46 7.8 83 83 SE 9 15 29.89 1012 10 16 0.00 0.00
1:56 am 01:56 Clear 49 9.4 45 7.2 86 86 SE 9 15 29.88 1012 10 16 0.00 0.00
2:56 am 02:56 Clear 49 9.4 45 7.2 86 86 SE 10 17 29.88 1012 8 13 0.00 0.00
3:56 am 03:56 Clear 49 9.4 45 7.2 86 86 SE 13 20 29.88 1012 7 11 0.00 0.00
4:56 am 04:56 Clear with Mist and Fog 48 8.9 45 7.2 89 89 SE 12 19 29.87 1012 6 10 0.00 0.00
5:56 am 05:56 Clear 49 9.4 46 7.8 90 90 SE 14 22 29.87 1011 7 11 0.00 0.00
6:56 am 06:56 Sunny with Mist and Fog 48 8.9 46 7.8 93 93 SSE 15 24 29.87 1011 5 8 0.00 0.00
7:56 am 07:56 Sunny 51 10.6 47 8.3 86 86 SSE 15 24 29.88 1012 10 16 0.00 0.00
8:56 am 08:56 Mostly Cloudy 55 12.8 49 9.4 80 80 S 18 30 29.86 1011 10 16 0.00 0.00
9:41 am 09:41 Mostly Cloudy 61 16 48 9 63 63 S 23 37 29.77 1008 10 16 0.00 0.00
9:56 am 09:56 Mostly Cloudy 60 15.6 49 9.4 67 67 S 24 39 29.82 1010 10 16 0.00 0.00
10:04 am 10:04 Partly Cloudy 61 16 50 10 68 68 S 24 39 29.76 1008 10 16 0.00 0.00
10:56 am 10:56 Sunny 63 17.2 51 10.6 65 65 S 29 46 29.80 1009 10 16 0.00 0.00
11:56 am 11:56 Mostly Sunny 66 18.9 51 10.6 59 59 S 26 43 29.78 1008 10 16 0.00 0.00
12:56 pm 12:56 Sunny 68 20 51 10.6 55 55 SSE 31 50 29.74 1007 10 16 0.00 0.00
1:56 pm 13:56 Sunny 69 20.6 51 10.6 53 53 SSE 29 46 29.71 1006 10 16 0.00 0.00
2:56 pm 14:56 Sunny 71 21.7 50 10 47 47 SSE 33 54 29.68 1005 10 16 0.00 0.00
3:56 pm 15:56 Sunny 72 22.2 50 10 46 46 SSE 35 56 29.63 1004 10 16 0.00 0.00
4:56 pm 16:56 Sunny 73 22.8 49 9.4 43 43 SSE 31 50 29.60 1002 10 16 0.00 0.00
5:56 pm 17:56 Sunny 73 22.8 49 9.4 43 43 SSE 26 43 29.58 1002 10 16 0.00 0.00
6:56 pm 18:56 Sunny 71 21.7 48 8.9 44 44 SSE 28 44 29.56 1001 10 16 0.00 0.00
7:56 pm 19:56 Sunny 69 20.6 47 8.3 45 45 SSE 24 39 29.59 1002 10 16 0.00 0.00
8:56 pm 20:56 Clear 68 20 46 7.8 45 45 SSE 25 41 29.58 1002 10 16 0.00 0.00
9:56 pm 21:56 Clear 66 18.9 45 7.2 47 47 S 30 48 29.56 1001 10 16 0.00 0.00
10:56 pm 22:56 Mostly Cloudy 65 18.3 45 7.2 49 49 S 26 43 29.56 1001 10 16 0.00 0.00
11:56 pm 23:56 Cloudy 62 16.7 47 8.3 58 58 S 20 31 29.60 1002 10 16 0.00 0.00

Powered by AerisWeather